FENGYUN 1C DEB

Satellite information

Favourite Embed

Satellite Type and Status

DEBRISIN ORBIT

Key statistics

Satellite FENGYUN 1C DEB at a glance.

Uptime

9495

Days in orbit

Revolutions

≈ 14.2

Per day

Orbit

SSO

Sun Synchronous Orbit

Inclination

98.6

Latest

Satellite identification and parameters

Extended collection of information and parameters for FENGYUN 1C DEB.

Object identification

Identified? True

Debris? True

Object name: FENGYUN 1C DEB

International designator: 1999-025ASX

Object number (NORAD): 30737

Object ID (CCSDS): 30737

Country: PEOPLES REPUBLIC OF CHINA (PRC)

Current information (Y/N): Y

RCS size: SMALL

Orbital parameters

Period: 101.557 minutes

Inclination: 98.5597 deg

SMA: 7210.5 km

Apoapsis: 850.187 km

Periapsis: 814.544 km

RAAN: 117.8337 deg

Eccentricy: 0.0024716

Argument of periapsis: 46.5911 deg

Mean anomaly: 342.0677 deg

Mean motion: 14.17929597 rev/day

Mean motion (dot): 0.00000767 rev/day2

B* drag term: 0.00039433 1/REarth

Two-line elements (TLE)

Creation date: May 8, 2025, 3:01 a.m.

Reference frame: TEME

Reference center: EARTH

Epoch: May 7, 2025, 10:32 p.m. UTC

TLE line 0: 0 FENGYUN 1C DEB

TLE line 1: 1 30737U 99025ASX 25127.93900547 .00000767 00000-0 39433-3 0 9994

TLE line 2: 2 30737 98.5597 117.8337 0024716 46.5911 342.0677 14.17929597939320

Live tracking on map

Real-time ground track for satellite FENGYUN 1C DEB.

In-orbit conjunctions

A list of the most updated potential collisions computed for object FENGYUN 1C DEB.

Target Orbit TCA Probability of collision Miss distance Type
DMSP 5D-2 F11 DEB SSO 2024-09-30 07:15:26 0.0002137297 119.0 (m) DEBRIS
CZ-6A DEB LEO 2024-09-20 21:04:19 0.0001197689 538.0 (m) DEBRIS
NOAA 11 DEB SSO 2024-07-03 00:15:39 0.000173736 30.0 (m) DEBRIS

Associated space launch

Chinese polar orbiting meteorological satellite

FENGYUN 1C DEB was lifted into orbit during the mission ‘Long March 4B | Feng Yun 1C’, on board a Long March 4B space rocket.

The launch took place on May 10, 1999, 1:33 a.m. from Launch Complex 7.

For more information about the launch, click the button.

Launch to space Long March 4B | Feng Yun 1C
Long March 4B | Feng Yun 1C

Agency: N/A

Status: Launch Successful

Launch date: May 10, 1999, 1:33 a.m. UTC

Rocket: Long March 4B

Launch pad: Launch Complex 7

Location: Taiyuan Satellite Launch Center, People's Republic of China

...

Latest news about this satellite

There are no fresh news available about this satellite. Check back as we update our databases every day.


Newsletter sign-up

Weekly statistics, charts and insights to help you stay on top of the space industry.